,,,PA_Meas_PMT16A,,PR_Meas_QMR101_102,,RH_Meas_QMH101,,SR_Meas_QMS101,,TA_Meas_QMH101,,GenWind,,GenWind,
date,time,status,PA,status,PR,status,RH,status,SR,status,TA,status,DirAvg,status,SpdAvg,
2012-08-28, 00:00:04,VALID,1001.75,VALID,0,VALID,94.6683,VALID,0,VALID,23.8555,VALID,73,VALID,0.641797,
2012-08-28, 00:01:04,VALID,1001.75,VALID,0,VALID,94.7065,VALID,0,VALID,23.8768,VALID,73,VALID,0.705859,
2012-08-28, 00:02:04,VALID,1001.72,VALID,0,VALID,94.7446,VALID,0,VALID,23.8768,VALID,73,VALID,0.808984,
2012-08-28, 00:03:04,VALID,1001.73,VALID,0,VALID,94.8057,VALID,0,VALID,23.8768,VALID,91,VALID,0.898438,
2012-08-28, 00:04:04,VALID,1001.71,VALID,0,VALID,94.8896,VALID,0,VALID,23.8768,VALID,91,VALID,0.663672,
2012-08-28, 00:05:04,VALID,1001.68,VALID,0,VALID,94.9354,VALID,0,VALID,23.8555,VALID,91,VALID,0.299219,
2012-08-28, 00:06:04,VALID,1001.69,VALID,0,VALID,94.9735,VALID,0,VALID,23.8573,VALID,91,VALID,0.70625,
2012-08-28, 00:07:04,VALID,1001.64,VALID,0,VALID,95.0193,VALID,0,VALID,23.8573,VALID,91,VALID,0.798047,
2012-08-28, 00:08:04,VALID,1001.58,VALID,0,VALID,95.0727,VALID,0,VALID,23.8555,VALID,91,VALID,0.594531,
2012-08-28, 00:09:04,VALID,1001.59,VALID,0,VALID,95.1261,VALID,0,VALID,23.875,VALID,91,VALID,0.865625,
2012-08-28, 00:10:04,VALID,1001.59,VALID,0,VALID,95.1566,VALID,0,VALID,23.9159,VALID,91,VALID,0.838672,
2012-08-28, 00:11:04,VALID,1001.61,VALID,0,VALID,95.1566,VALID,0,VALID,23.914,VALID,91,VALID,0.753906,
2012-08-28, 00:12:04,VALID,1001.55,VALID,0,VALID,95.1643,VALID,0,VALID,23.914,VALID,91,VALID,0.583984,
2012-08-28, 00:13:04,VALID,1001.61,VALID,0,VALID,95.1643,VALID,0,VALID,23.9354,VALID,91,VALID,0.336328,
2012-08-28, 00:14:04,VALID,1001.61,VALID,0,VALID,95.1643,VALID,0,VALID,23.9159,VALID,91,VALID,0.0523437,
2012-08-28, 00:15:04,VALID,1001.6,VALID,0,VALID,95.1643,VALID,0,VALID,23.8963,VALID,91,VALID,0,
2012-08-28, 00:16:04,VALID,1001.6,VALID,0,VALID,95.1795,VALID,0,VALID,23.8963,VALID,91,VALID,0,
2012-08-28, 00:17:04,VALID,1001.59,VALID,0,VALID,95.149,VALID,0,VALID,23.8963,VALID,91,VALID,0.238672,
2012-08-28, 00:18:04,VALID,1001.58,VALID,0,VALID,95.1643,VALID,0,VALID,23.8963,VALID,91,VALID,0.312109,
2012-08-28, 00:19:04,VALID,1001.56,VALID,0,VALID,95.0956,VALID,0,VALID,23.8768,VALID,91,VALID,0.345313,
2012-08-28, 00:20:04,VALID,1001.55,VALID,0,VALID,95.0651,VALID,0,VALID,23.8555,VALID,91,VALID,0.35625,
2012-08-28, 00:21:04,VALID,1001.55,VALID,0,VALID,95.0193,VALID,0,VALID,23.8555,VALID,91,VALID,0.3,
2012-08-28, 00:22:04,VALID,1001.54,VALID,0,VALID,95.004,VALID,0,VALID,23.8573,VALID,91,VALID,0.170703,
2012-08-28, 00:23:04,VALID,1001.5,VALID,0,VALID,94.9888,VALID,0,VALID,23.8573,VALID,91,VALID,0.229687,
2012-08-28, 00:24:04,VALID,1001.49,VALID,0,VALID,94.9964,VALID,0,VALID,23.836,VALID,91,VALID,0.494922,
2012-08-28, 00:25:04,VALID,1001.49,VALID,0,VALID,94.9735,VALID,0,VALID,23.8378,VALID,91,VALID,0.437891,
2012-08-28, 00:26:04,VALID,1001.48,VALID,0,VALID,94.9583,VALID,0,VALID,23.836,VALID,91,VALID,0.585938,
2012-08-28, 00:27:04,VALID,1001.47,VALID,0,VALID,94.8667,VALID,0,VALID,23.8378,VALID,91,VALID,0.523047,
2012-08-28, 00:28:04,VALID,1001.47,VALID,0,VALID,94.7675,VALID,0,VALID,23.8573,VALID,91,VALID,0.615625,
2012-08-28, 00:29:04,VALID,1001.5,VALID,0,VALID,94.6988,VALID,0,VALID,23.836,VALID,91,VALID,0.452344,
2012-08-28, 00:30:04,VALID,1001.45,VALID,0,VALID,94.6454,VALID,0,VALID,23.8768,VALID,91,VALID,0.280859,
2012-08-28, 00:31:04,VALID,1001.44,VALID,0,VALID,94.6226,VALID,0,VALID,23.875,VALID,91,VALID,0.215625,
2012-08-28, 00:32:04,VALID,1001.41,VALID,0,VALID,94.5768,VALID,0,VALID,23.8768,VALID,91,VALID,0.189844,
2012-08-28, 00:33:04,VALID,1001.43,VALID,0,VALID,94.5997,VALID,0,VALID,23.875,VALID,91,VALID,0.422266,
2012-08-28, 00:34:04,VALID,1001.38,VALID,0,VALID,94.5539,VALID,0,VALID,23.8768,VALID,91,VALID,0.557813,
2012-08-28, 00:35:04,VALID,1001.36,VALID,0,VALID,94.4318,VALID,0,VALID,23.8768,VALID,91,VALID,0.681641,
2012-08-28, 00:36:04,VALID,1001.39,VALID,0,VALID,94.3708,VALID,0,VALID,23.875,VALID,91,VALID,0.337109,
2012-08-28, 00:37:04,VALID,1001.34,VALID,0,VALID,94.3784,VALID,0,VALID,23.9159,VALID,91,VALID,0.614062,
2012-08-28, 00:38:04,VALID,1001.34,VALID,0,VALID,94.3784,VALID,0,VALID,23.875,VALID,91,VALID,0.478516,
2012-08-28, 00:39:04,VALID,1001.33,VALID,0,VALID,94.3403,VALID,0,VALID,23.8963,VALID,91,VALID,0.713672,
2012-08-28, 00:40:04,VALID,1001.32,VALID,0,VALID,94.3174,VALID,0,VALID,23.8768,VALID,91,VALID,0.775,
2012-08-28, 00:41:04,VALID,1001.25,VALID,0,VALID,94.2716,VALID,0,VALID,23.836,VALID,91,VALID,0.701172,
2012-08-28, 00:42:04,VALID,1001.27,VALID,0,VALID,94.3097,VALID,0,VALID,23.8378,VALID,91,VALID,0.529297,
2012-08-28, 00:43:04,VALID,1001.25,VALID,0,VALID,94.386,VALID,0,VALID,23.8378,VALID,91,VALID,0.489453,
2012-08-28, 00:44:04,VALID,1001.26,VALID,0,VALID,94.4547,VALID,0,VALID,23.8183,VALID,91,VALID,0.705078,
2012-08-28, 00:45:04,VALID,1001.24,VALID,0,VALID,94.5005,VALID,0,VALID,23.7775,VALID,91,VALID,0.589453,
2012-08-28, 00:46:04,VALID,1001.16,VALID,0,VALID,94.5691,VALID,0,VALID,23.7988,VALID,91,VALID,0.468359,
2012-08-28, 00:47:04,VALID,1001.16,VALID,0,VALID,94.6149,VALID,0,VALID,23.7775,VALID,91,VALID,0.742578,
2012-08-28, 00:48:04,VALID,1001.16,VALID,0,VALID,94.6149,VALID,0,VALID,23.7775,VALID,91,VALID,0.478516,
2012-08-28, 00:49:04,VALID,1001.12,VALID,0,VALID,94.5615,VALID,0,VALID,23.797,VALID,91,VALID,0.3,
2012-08-28, 00:50:04,VALID,1001.12,VALID,0,VALID,94.5844,VALID,0,VALID,23.8183,VALID,91,VALID,0.241406,
2012-08-28, 00:51:04,VALID,1001.1,VALID,0,VALID,94.6454,VALID,0,VALID,23.8165,VALID,91,VALID,0.221484,
2012-08-28, 00:52:04,VALID,1001.09,VALID,0,VALID,94.7065,VALID,0,VALID,23.797,VALID,91,VALID,0.315234,
2012-08-28, 00:53:04,VALID,1001.09,VALID,0,VALID,94.7446,VALID,0.104696,VALID,23.797,VALID,91,VALID,0.285547,
2012-08-28, 00:54:04,VALID,1001.08,VALID,0,VALID,94.7523,VALID,0,VALID,23.7793,VALID,91,VALID,0.286328,
2012-08-28, 00:55:04,VALID,1001.06,VALID,0,VALID,94.8057,VALID,0,VALID,23.7793,VALID,91,VALID,0.230469,
2012-08-28, 00:56:04,VALID,1001.08,VALID,0,VALID,94.8514,VALID,0,VALID,23.7597,VALID,91,VALID,0.00195313,
2012-08-28, 00:57:04,VALID,1001.07,VALID,0,VALID,94.882,VALID,0,VALID,23.7402,VALID,91,VALID,0,
2012-08-28, 00:58:04,VALID,1001.06,VALID,0,VALID,94.8743,VALID,0,VALID,23.6799,VALID,91,VALID,0.416406,
2012-08-28, 00:59:04,VALID,1001.05,VALID,0,VALID,94.8591,VALID,0,VALID,23.6817,VALID,91,VALID,0.567578,
2012-08-28, 01:00:04,VALID,1001.01,VALID,0,VALID,94.8896,VALID,0,VALID,23.6232,VALID,91,VALID,0.337109,
2012-08-28, 01:01:04,VALID,1001.05,VALID,0,VALID,94.9811,VALID,0,VALID,23.5823,VALID,91,VALID,0.0398437,
2012-08-28, 01:02:04,VALID,1001.04,VALID,0,VALID,95.0193,VALID,0,VALID,23.5823,VALID,91,VALID,0.192969,
2012-08-28, 01:03:04,VALID,1001.01,VALID,0,VALID,95.088,VALID,0,VALID,23.5628,VALID,91,VALID,0.0800781,
2012-08-28, 01:04:04,VALID,1000.99,VALID,0,VALID,95.1108,VALID,0,VALID,23.5238,VALID,91,VALID,0,
2012-08-28, 01:05:04,VALID,1000.97,VALID,0,VALID,95.1795,VALID,0,VALID,23.5238,VALID,91,VALID,0.483594,
2012-08-28, 01:06:04,VALID,1000.95,VALID,0,VALID,95.2482,VALID,0,VALID,23.5256,VALID,91,VALID,0.603125,
2012-08-28, 01:07:04,VALID,1000.93,VALID,0,VALID,95.2787,VALID,0,VALID,23.5274,VALID,91,VALID,0.407031,
2012-08-28, 01:08:04,VALID,1000.91,VALID,0,VALID,95.3397,VALID,0,VALID,23.5061,VALID,91,VALID,0.536328,
2012-08-28, 01:09:04,VALID,1000.88,VALID,0,VALID,95.3779,VALID,0,VALID,23.5256,VALID,91,VALID,0.644141,
2012-08-28, 01:10:04,VALID,1000.88,VALID,0,VALID,95.3931,VALID,0,VALID,23.5061,VALID,91,VALID,0.396875,
2012-08-28, 01:11:04,VALID,1000.88,VALID,0,VALID,95.3397,VALID,0,VALID,23.4671,VALID,91,VALID,0.557031,
2012-08-28, 01:12:04,VALID,1000.9,VALID,0,VALID,95.2787,VALID,0,VALID,23.4688,VALID,91,VALID,0.439453,
2012-08-28, 01:13:04,VALID,1000.86,VALID,0,VALID,95.2177,VALID,0,VALID,23.4298,VALID,91,VALID,0.663281,
2012-08-28, 01:14:04,VALID,1000.86,VALID,0,VALID,95.2482,VALID,0,VALID,23.4493,VALID,91,VALID,1.23398,
2012-08-28, 01:15:04,VALID,1000.85,VALID,0,VALID,95.2177,VALID,0,VALID,23.4475,VALID,85,VALID,1.50898,
2012-08-28, 01:16:04,VALID,1000.79,VALID,0,VALID,95.1337,VALID,0,VALID,23.4475,VALID,73,VALID,1.10977,
2012-08-28, 01:17:04,VALID,1000.8,VALID,0,VALID,95.1414,VALID,0,VALID,23.4688,VALID,60,VALID,0.790234,
2012-08-28, 01:18:04,VALID,1000.77,VALID,0,VALID,95.1871,VALID,0,VALID,23.4475,VALID,60,VALID,0.860547,
2012-08-28, 01:19:04,VALID,1000.76,VALID,0,VALID,95.2177,VALID,0,VALID,23.4671,VALID,35,VALID,1.12227,
2012-08-28, 01:20:04,VALID,1000.74,VALID,0,VALID,95.1566,VALID,0,VALID,23.428,VALID,50,VALID,1.0582,
2012-08-28, 01:21:04,VALID,1000.72,VALID,0,VALID,95.149,VALID,0,VALID,23.428,VALID,33,VALID,1.75117,
2012-08-28, 01:22:04,VALID,1000.69,VALID,0,VALID,95.1414,VALID,0,VALID,23.428,VALID,27,VALID,1.71953,
2012-08-28, 01:23:04,VALID,1000.71,VALID,0,VALID,95.0651,VALID,0,VALID,23.3695,VALID,27,VALID,1.25664,
2012-08-28, 01:24:04,VALID,1000.74,VALID,0,VALID,95.0193,VALID,0,VALID,23.2897,VALID,27,VALID,0.778516,
2012-08-28, 01:25:04,VALID,1000.72,VALID,0,VALID,95.0422,VALID,0,VALID,23.2719,VALID,27,VALID,0.865234,
2012-08-28, 01:26:04,VALID,1000.73,VALID,0,VALID,95.1719,VALID,0,VALID,23.2897,VALID,27,VALID,0.346484,
2012-08-28, 01:27:04,VALID,1000.73,VALID,0,VALID,95.2558,VALID,0,VALID,23.311,VALID,27,VALID,0.00859375,
2012-08-28, 01:28:04,VALID,1000.75,VALID,0,VALID,95.294,VALID,0,VALID,23.3305,VALID,27,VALID,0.522266,
2012-08-28, 01:29:04,VALID,1000.73,VALID,0,VALID,95.3016,VALID,0,VALID,23.2897,VALID,27,VALID,0.442187,
2012-08-28, 01:30:04,VALID,1000.71,VALID,0,VALID,95.3245,VALID,0,VALID,23.2702,VALID,27,VALID,0.143359,
2012-08-28, 01:31:04,VALID,1000.74,VALID,0,VALID,95.355,VALID,0.104696,VALID,23.311,VALID,27,VALID,0.273828,
2012-08-28, 01:32:04,VALID,1000.71,VALID,0,VALID,95.3321,VALID,0,VALID,23.311,VALID,27,VALID,0.259375,
2012-08-28, 01:33:04,VALID,1000.69,VALID,0,VALID,95.355,VALID,0,VALID,23.311,VALID,27,VALID,0.499219,
2012-08-28, 01:34:04,VALID,1000.69,VALID,0,VALID,95.3397,VALID,0,VALID,23.2915,VALID,27,VALID,0.655469,
2012-08-28, 01:35:04,VALID,1000.69,VALID,0,VALID,95.355,VALID,0,VALID,23.2507,VALID,27,VALID,0.564062,
2012-08-28, 01:36:04,VALID,1000.68,VALID,0,VALID,95.3397,VALID,0,VALID,23.2507,VALID,27,VALID,0.299219,
2012-08-28, 01:37:04,VALID,1000.65,VALID,0,VALID,95.355,VALID,0,VALID,23.2507,VALID,27,VALID,0.180859,
2012-08-28, 01:38:04,VALID,1000.67,VALID,0,VALID,95.3016,VALID,0,VALID,23.2312,VALID,27,VALID,0,
2012-08-28, 01:39:04,VALID,1000.64,VALID,0,VALID,95.2482,VALID,0,VALID,23.1726,VALID,27,VALID,0.262891,
2012-08-28, 01:40:04,VALID,1000.65,VALID,0,VALID,95.2253,VALID,0.104696,VALID,23.1531,VALID,27,VALID,0.240234,
2012-08-28, 01:41:04,VALID,1000.65,VALID,0,VALID,95.2253,VALID,0,VALID,23.1336,VALID,27,VALID,0.553906,
2012-08-28, 01:42:04,VALID,1000.65,VALID,0,VALID,95.2253,VALID,0,VALID,23.1141,VALID,27,VALID,0.6375,
2012-08-28, 01:43:04,VALID,1000.63,VALID,0,VALID,95.1719,VALID,0,VALID,23.0946,VALID,27,VALID,0.536328,
2012-08-28, 01:44:04,VALID,1000.65,VALID,0,VALID,95.1261,VALID,0,VALID,23.0964,VALID,27,VALID,0.396484,
2012-08-28, 01:45:04,VALID,1000.62,VALID,0,VALID,95.0803,VALID,0.104696,VALID,23.0556,VALID,27,VALID,0.482031,
2012-08-28, 01:46:04,VALID,1000.62,VALID,0,VALID,95.0269,VALID,0.104696,VALID,23.0556,VALID,27,VALID,0.532812,
2012-08-28, 01:47:04,VALID,1000.65,VALID,0,VALID,94.9735,VALID,0,VALID,23.0361,VALID,27,VALID,0.325,
2012-08-28, 01:48:04,VALID,1000.64,VALID,0,VALID,94.943,VALID,0,VALID,23.0361,VALID,27,VALID,0.296875,
2012-08-28, 01:49:05,VALID,1000.62,VALID,0,VALID,94.9583,VALID,0,VALID,23.0361,VALID,27,VALID,0.241406,
2012-08-28, 01:50:05,VALID,1000.65,VALID,0,VALID,94.9735,VALID,0,VALID,23.0361,VALID,27,VALID,0.403906,
2012-08-28, 01:51:05,VALID,1000.68,VALID,0,VALID,94.9659,VALID,0,VALID,23.0378,VALID,27,VALID,0.559766,
2012-08-28, 01:52:05,VALID,1000.66,VALID,0,VALID,94.943,VALID,0,VALID,23.0591,VALID,27,VALID,0.804297,
2012-08-28, 01:53:05,VALID,1000.69,VALID,0,VALID,94.9964,VALID,0,VALID,23.0573,VALID,27,VALID,0.692578,
2012-08-28, 01:54:05,VALID,1000.69,VALID,0,VALID,95.0269,VALID,0,VALID,23.0769,VALID,27,VALID,0.929297,
2012-08-28, 01:55:05,VALID,1000.7,VALID,0,VALID,94.9964,VALID,0,VALID,23.0964,VALID,27,VALID,0.910937,
2012-08-28, 01:56:05,VALID,1000.68,VALID,0,VALID,94.9888,VALID,0,VALID,23.0964,VALID,27,VALID,0.807422,
2012-08-28, 01:57:05,VALID,1000.71,VALID,0,VALID,95.0117,VALID,0,VALID,23.1159,VALID,27,VALID,0.939062,
2012-08-28, 01:58:05,VALID,1000.7,VALID,0,VALID,95.0803,VALID,0,VALID,23.1354,VALID,27,VALID,0.667969,
2012-08-28, 01:59:05,VALID,1000.7,VALID,0,VALID,95.1566,VALID,0,VALID,23.1354,VALID,27,VALID,0.516016,
2012-08-28, 02:00:05,VALID,1000.71,VALID,0,VALID,95.1948,VALID,0,VALID,23.1762,VALID,27,VALID,0.516797,
2012-08-28, 02:01:05,VALID,1000.7,VALID,0,VALID,95.2329,VALID,0,VALID,23.1744,VALID,27,VALID,0.538672,
2012-08-28, 02:02:05,VALID,1000.7,VALID,0,VALID,95.2863,VALID,0,VALID,23.1744,VALID,27,VALID,0.319531,
2012-08-28, 02:03:05,VALID,1000.7,VALID,0,VALID,95.2787,VALID,0,VALID,23.1549,VALID,27,VALID,0.274609,
2012-08-28, 02:04:05,VALID,1000.69,VALID,0,VALID,95.3016,VALID,0,VALID,23.1744,VALID,27,VALID,0.179688,
2012-08-28, 02:05:05,VALID,1000.71,VALID,0,VALID,95.2863,VALID,0,VALID,23.1744,VALID,27,VALID,0.0078125,
2012-08-28, 02:06:05,VALID,1000.72,VALID,0,VALID,95.3168,VALID,0,VALID,23.1549,VALID,27,VALID,0.160938,
2012-08-28, 02:07:05,VALID,1000.67,VALID,0,VALID,95.3245,VALID,0,VALID,23.1744,VALID,27,VALID,0.222266,
2012-08-28, 02:08:05,VALID,1000.67,VALID,0,VALID,95.3092,VALID,0,VALID,23.1957,VALID,27,VALID,0.322656,
2012-08-28, 02:09:05,VALID,1000.66,VALID,0,VALID,95.3245,VALID,0,VALID,23.1744,VALID,27,VALID,0.273438,
2012-08-28, 02:10:05,VALID,1000.65,VALID,0,VALID,95.3092,VALID,0,VALID,23.1939,VALID,27,VALID,0,
2012-08-28, 02:11:05,VALID,1000.63,VALID,0,VALID,95.3016,VALID,0,VALID,23.1939,VALID,27,VALID,0,
2012-08-28, 02:12:05,VALID,1000.61,VALID,0,VALID,95.3092,VALID,0,VALID,23.2134,VALID,27,VALID,0,
2012-08-28, 02:13:05,VALID,1000.62,VALID,0,VALID,95.3474,VALID,0,VALID,23.2329,VALID,27,VALID,0,
2012-08-28, 02:14:05,VALID,1000.63,VALID,0,VALID,95.3321,VALID,0,VALID,23.2329,VALID,27,VALID,0,
2012-08-28, 02:15:05,VALID,1000.61,VALID,0,VALID,95.3474,VALID,0,VALID,23.2329,VALID,27,VALID,0,
2012-08-28, 02:16:05,VALID,1000.61,VALID,0,VALID,95.3321,VALID,0,VALID,23.2329,VALID,27,VALID,0,
2012-08-28, 02:17:05,VALID,1000.6,VALID,0,VALID,95.3168,VALID,0,VALID,23.2134,VALID,27,VALID,0,
2012-08-28, 02:18:05,VALID,1000.63,VALID,0,VALID,95.3245,VALID,0,VALID,23.2329,VALID,27,VALID,0,
2012-08-28, 02:19:05,VALID,1000.62,VALID,0,VALID,95.3321,VALID,0,VALID,23.2134,VALID,27,VALID,0,
2012-08-28, 02:20:05,VALID,1000.63,VALID,0,VALID,95.355,VALID,0,VALID,23.2329,VALID,27,VALID,0.334766,
2012-08-28, 02:21:05,VALID,1000.59,VALID,0,VALID,95.355,VALID,0,VALID,23.2312,VALID,27,VALID,0.224609,
2012-08-28, 02:22:05,VALID,1000.63,VALID,0,VALID,95.3703,VALID,0,VALID,23.2329,VALID,27,VALID,0.227734,
2012-08-28, 02:23:05,VALID,1000.61,VALID,0,VALID,95.3474,VALID,0,VALID,23.2312,VALID,27,VALID,0,
2012-08-28, 02:24:05,VALID,1000.57,VALID,0,VALID,95.3397,VALID,0,VALID,23.2507,VALID,27,VALID,0,
2012-08-28, 02:25:05,VALID,1000.55,VALID,0,VALID,95.3168,VALID,0,VALID,23.2702,VALID,27,VALID,0,
2012-08-28, 02:26:05,VALID,1000.52,VALID,0,VALID,95.3321,VALID,0,VALID,23.2702,VALID,27,VALID,0,
2012-08-28, 02:27:05,VALID,1000.53,VALID,0,VALID,95.2863,VALID,0,VALID,23.2702,VALID,27,VALID,0,
2012-08-28, 02:28:05,VALID,1000.54,VALID,0,VALID,95.294,VALID,0,VALID,23.2897,VALID,27,VALID,0,
2012-08-28, 02:29:05,VALID,1000.53,VALID,0,VALID,95.294,VALID,0,VALID,23.3092,VALID,27,VALID,0,
2012-08-28, 02:30:05,VALID,1000.49,VALID,0,VALID,95.294,VALID,0,VALID,23.3695,VALID,27,VALID,0,
2012-08-28, 02:31:05,VALID,1000.5,VALID,0,VALID,95.2253,VALID,0,VALID,23.3872,VALID,27,VALID,0,
2012-08-28, 02:32:05,VALID,1000.47,VALID,0,VALID,95.1719,VALID,0,VALID,23.4475,VALID,27,VALID,0,
2012-08-28, 02:33:05,VALID,1000.47,VALID,0,VALID,95.0574,VALID,0,VALID,23.5043,VALID,27,VALID,0,
2012-08-28, 02:34:05,VALID,1000.47,VALID,0,VALID,94.9201,VALID,0,VALID,23.5646,VALID,181,VALID,0.620703,
2012-08-28, 02:35:05,VALID,1000.48,VALID,0,VALID,94.7523,VALID,0,VALID,23.6214,VALID,184,VALID,1.42852,
2012-08-28, 02:36:05,VALID,1000.5,VALID,0,VALID,94.4013,VALID,0.104696,VALID,23.7597,VALID,184,VALID,1.21523,
2012-08-28, 02:37:05,VALID,1000.53,VALID,0,VALID,93.7909,VALID,0,VALID,23.8573,VALID,184,VALID,1.01289,
2012-08-28, 02:38:05,VALID,1000.54,VALID,0,VALID,92.9669,VALID,0,VALID,23.9549,VALID,193,VALID,0.785547,
2012-08-28, 02:39:05,VALID,1000.53,VALID,0,VALID,92.3031,VALID,0,VALID,24.0116,VALID,187,VALID,1.11602,
2012-08-28, 02:40:05,VALID,1000.56,VALID,0,VALID,92.1887,VALID,0,VALID,24.0701,VALID,181,VALID,0.960938,
2012-08-28, 02:41:05,VALID,1000.56,VALID,0,VALID,92.0514,VALID,0,VALID,24.0897,VALID,181,VALID,0.811328,
2012-08-28, 02:42:05,VALID,1000.58,VALID,0,VALID,92.0743,VALID,0,VALID,24.0506,VALID,181,VALID,1.00469,
2012-08-28, 02:43:05,VALID,1000.59,VALID,0,VALID,92.1811,VALID,0,VALID,24.0329,VALID,181,VALID,1.02734,
2012-08-28, 02:44:05,VALID,1000.61,VALID,0,VALID,92.2421,VALID,0,VALID,24.0525,VALID,181,VALID,1.06523,
2012-08-28, 02:45:05,VALID,1000.59,VALID,0,VALID,92.1658,VALID,0,VALID,24.0506,VALID,181,VALID,1.04102,
2012-08-28, 02:46:05,VALID,1000.61,VALID,0,VALID,91.8225,VALID,0.104696,VALID,24.0311,VALID,172,VALID,1.34727,
2012-08-28, 02:47:05,VALID,1000.57,VALID,0,VALID,91.38,VALID,0,VALID,24.0525,VALID,171,VALID,1.23594,
2012-08-28, 02:48:05,VALID,1000.59,VALID,0,VALID,91.2579,VALID,0,VALID,24.0311,VALID,171,VALID,1.13867,
2012-08-28, 02:49:05,VALID,1000.59,VALID,0,VALID,90.9985,VALID,0,VALID,24.0311,VALID,171,VALID,1.12188,
2012-08-28, 02:50:05,VALID,1000.59,VALID,0,VALID,90.8001,VALID,0,VALID,24.072,VALID,171,VALID,0.934375,
2012-08-28, 02:51:05,VALID,1000.58,VALID,0,VALID,90.8917,VALID,0,VALID,24.0525,VALID,171,VALID,0.881641,
2012-08-28, 02:52:05,VALID,1000.56,VALID,0,VALID,90.9985,VALID,0,VALID,24.0134,VALID,171,VALID,0.817969,
2012-08-28, 02:53:05,VALID,1000.57,VALID,0,VALID,91.5783,VALID,0,VALID,23.9939,VALID,161,VALID,0.889844,
2012-08-28, 02:54:05,VALID,1000.55,VALID,0,VALID,92.2268,VALID,0,VALID,23.9336,VALID,70,VALID,1.10352,
2012-08-28, 02:55:05,VALID,1000.56,VALID,0,VALID,92.4634,VALID,0,VALID,23.875,VALID,49,VALID,1.34727,
2012-08-28, 02:56:05,VALID,1000.55,VALID,0,VALID,92.6236,VALID,0,VALID,23.7988,VALID,49,VALID,1.21719,
2012-08-28, 02:57:05,VALID,1000.58,VALID,0,VALID,92.9974,VALID,0,VALID,23.7207,VALID,50,VALID,1.19531,
2012-08-28, 02:58:05,VALID,1000.56,VALID,0,VALID,93.4552,VALID,0,VALID,23.6817,VALID,52,VALID,1.25898,
2012-08-28, 02:59:05,VALID,1000.58,VALID,0,VALID,93.7985,VALID,0,VALID,23.6409,VALID,52,VALID,1.25117,
2012-08-28, 03:00:05,VALID,1000.56,VALID,0,VALID,94.0274,VALID,0,VALID,23.6019,VALID,52,VALID,1.1457,
2012-08-28, 03:01:05,VALID,1000.54,VALID,0,VALID,94.1953,VALID,0,VALID,23.5646,VALID,52,VALID,1.02656,
2012-08-28, 03:02:05,VALID,1000.51,VALID,0,VALID,94.3479,VALID,0,VALID,23.5646,VALID,52,VALID,0.736328,
2012-08-28, 03:03:05,VALID,1000.52,VALID,0,VALID,94.4623,VALID,0,VALID,23.5433,VALID,52,VALID,0.576563,
2012-08-28, 03:04:05,VALID,1000.5,VALID,0,VALID,94.5844,VALID,0,VALID,23.5043,VALID,52,VALID,0.41875,
2012-08-28, 03:05:05,VALID,1000.52,VALID,0,VALID,94.6912,VALID,0,VALID,23.5451,VALID,52,VALID,0.523828,
2012-08-28, 03:06:05,VALID,1000.5,VALID,0,VALID,94.7675,VALID,0,VALID,23.5256,VALID,52,VALID,0.273047,
2012-08-28, 03:07:05,VALID,1000.51,VALID,0,VALID,94.798,VALID,0,VALID,23.5256,VALID,52,VALID,0.0398437,
2012-08-28, 03:08:05,VALID,1000.49,VALID,0,VALID,94.8514,VALID,0,VALID,23.5043,VALID,52,VALID,0.288281,
2012-08-28, 03:09:05,VALID,1000.49,VALID,0,VALID,94.8972,VALID,0,VALID,23.5043,VALID,52,VALID,0.421875,
2012-08-28, 03:10:05,VALID,1000.5,VALID,0,VALID,94.9048,VALID,0,VALID,23.5043,VALID,52,VALID,0.124609,
2012-08-28, 03:11:05,VALID,1000.49,VALID,0,VALID,94.943,VALID,0,VALID,23.5043,VALID,52,VALID,0.189844,
2012-08-28, 03:12:05,VALID,1000.5,VALID,0,VALID,94.9354,VALID,0,VALID,23.5451,VALID,52,VALID,0.529688,
2012-08-28, 03:13:05,VALID,1000.5,VALID,0,VALID,94.9354,VALID,0,VALID,23.5256,VALID,52,VALID,0.608984,
2012-08-28, 03:14:05,VALID,1000.51,VALID,0,VALID,94.9735,VALID,0,VALID,23.4848,VALID,52,VALID,0.592969,
2012-08-28, 03:15:05,VALID,1000.48,VALID,0,VALID,94.9125,VALID,0,VALID,23.5061,VALID,52,VALID,0.516797,
2012-08-28, 03:16:05,VALID,1000.48,VALID,0,VALID,94.8743,VALID,0,VALID,23.4653,VALID,52,VALID,0.996484,
2012-08-28, 03:17:05,VALID,1000.49,VALID,0,VALID,94.7751,VALID,0,VALID,23.4458,VALID,52,VALID,0.618359,
2012-08-28, 03:18:05,VALID,1000.52,VALID,0,VALID,94.7294,VALID,0,VALID,23.4263,VALID,52,VALID,0.592969,
2012-08-28, 03:19:05,VALID,1000.49,VALID,0,VALID,94.7217,VALID,0,VALID,23.4475,VALID,52,VALID,0.320313,
2012-08-28, 03:20:05,VALID,1000.51,VALID,0,VALID,94.7446,VALID,0,VALID,23.4067,VALID,52,VALID,0.441406,
2012-08-28, 03:21:05,VALID,1000.5,VALID,0,VALID,94.7828,VALID,0,VALID,23.4085,VALID,52,VALID,0.164453,
2012-08-28, 03:22:05,VALID,1000.49,VALID,0,VALID,94.8209,VALID,0,VALID,23.3872,VALID,52,VALID,0.0308594,
2012-08-28, 03:23:05,VALID,1000.51,VALID,0,VALID,94.8667,VALID,0,VALID,23.428,VALID,52,VALID,0,
2012-08-28, 03:24:05,VALID,1000.49,VALID,0,VALID,94.9277,VALID,0,VALID,23.4085,VALID,52,VALID,0.320313,
2012-08-28, 03:25:05,VALID,1000.44,VALID,0,VALID,94.9277,VALID,0,VALID,23.3872,VALID,52,VALID,0,
2012-08-28, 03:26:05,VALID,1000.43,VALID,0,VALID,94.9583,VALID,0,VALID,23.4085,VALID,52,VALID,0.0785156,
2012-08-28, 03:27:05,VALID,1000.44,VALID,0,VALID,95.0498,VALID,0,VALID,23.428,VALID,52,VALID,0.0628906,
2012-08-28, 03:28:05,VALID,1000.45,VALID,0,VALID,95.088,VALID,0,VALID,23.4067,VALID,52,VALID,0,
2012-08-28, 03:29:05,VALID,1000.44,VALID,0,VALID,95.1032,VALID,0,VALID,23.4475,VALID,52,VALID,0,
2012-08-28, 03:30:05,VALID,1000.43,VALID,0,VALID,95.1566,VALID,0,VALID,23.4671,VALID,52,VALID,0.248437,
2012-08-28, 03:31:05,VALID,1000.42,VALID,0,VALID,95.1871,VALID,0,VALID,23.4671,VALID,52,VALID,0.534375,
2012-08-28, 03:32:05,VALID,1000.41,VALID,0,VALID,95.1643,VALID,0,VALID,23.4458,VALID,52,VALID,0.582422,
2012-08-28, 03:33:05,VALID,1000.46,VALID,0,VALID,95.1185,VALID,0,VALID,23.4671,VALID,52,VALID,0.599609,
2012-08-28, 03:34:05,VALID,1000.43,VALID,0,VALID,95.1032,VALID,0,VALID,23.428,VALID,52,VALID,0.780078,
2012-08-28, 03:35:05,VALID,1000.44,VALID,0,VALID,95.0956,VALID,0,VALID,23.4475,VALID,52,VALID,0.804688,
2012-08-28, 03:36:05,VALID,1000.47,VALID,0,VALID,95.1337,VALID,0,VALID,23.428,VALID,52,VALID,0.561328,
2012-08-28, 03:37:05,VALID,1000.43,VALID,0,VALID,95.2024,VALID,0,VALID,23.4475,VALID,52,VALID,0.664844,
2012-08-28, 03:38:05,VALID,1000.43,VALID,0,VALID,95.2863,VALID,0,VALID,23.4458,VALID,52,VALID,0.937891,
2012-08-28, 03:39:05,VALID,1000.43,VALID,0,VALID,95.294,VALID,0,VALID,23.4866,VALID,52,VALID,1.09883,
2012-08-28, 03:40:05,VALID,1000.44,VALID,0,VALID,95.2787,VALID,0,VALID,23.4866,VALID,52,VALID,1.1168,
2012-08-28, 03:41:05,VALID,1000.41,VALID,0,VALID,95.2482,VALID,0,VALID,23.4653,VALID,52,VALID,0.947266,
2012-08-28, 03:42:05,VALID,1000.4,VALID,0,VALID,95.2482,VALID,0,VALID,23.4653,VALID,4,VALID,1.4457,
2012-08-28, 03:43:05,VALID,1000.41,VALID,0,VALID,95.2482,VALID,0,VALID,23.4848,VALID,4,VALID,0.918359,
2012-08-28, 03:44:05,VALID,1000.43,VALID,0,VALID,95.2177,VALID,0,VALID,23.4848,VALID,4,VALID,0.289063,
2012-08-28, 03:45:05,VALID,1000.39,VALID,0,VALID,95.2329,VALID,0,VALID,23.5061,VALID,4,VALID,0.63125,
2012-08-28, 03:46:05,VALID,1000.4,VALID,0,VALID,95.1337,VALID,0,VALID,23.4848,VALID,5,VALID,1.16953,
2012-08-28, 03:47:05,VALID,1000.39,VALID,0,VALID,95.0574,VALID,0,VALID,23.4866,VALID,5,VALID,0.939844,
2012-08-28, 03:48:05,VALID,1000.38,VALID,0,VALID,95.004,VALID,0,VALID,23.4848,VALID,5,VALID,1.10078,